,,,PA_Meas_PMT16A,,PR_Meas_QMR101_102,,RH_Meas_QMH101,,SR_Meas_QMS101,,TA_Meas_QMH101,,GenWind,,GenWind,
date,time,status,PA,status,PR,status,RH,status,SR,status,TA,status,DirAvg,status,SpdAvg,
2011-09-05, 00:00:04,VALID,1005.03,VALID,0,INVALID,163.708,VALID,0.100563,VALID,24.9457,VALID,43,VALID,0,
2011-09-05, 00:01:04,VALID,1005.02,VALID,0,INVALID,163.693,VALID,0,VALID,24.9866,VALID,21,VALID,0,
2011-09-05, 00:02:04,VALID,1005.02,VALID,0,INVALID,163.708,VALID,0.100563,VALID,24.9866,VALID,21,VALID,0,
2011-09-05, 00:03:04,VALID,1004.98,VALID,0,INVALID,163.708,VALID,0,VALID,24.9476,VALID,24,VALID,0,
2011-09-05, 00:04:04,VALID,1004.98,VALID,0,INVALID,163.701,VALID,0,VALID,24.8892,VALID,24,VALID,0,
2011-09-05, 00:05:04,VALID,1004.97,VALID,0,INVALID,163.723,VALID,0,VALID,24.8289,VALID,24,VALID,0,
2011-09-05, 00:06:04,VALID,1004.92,VALID,0,INVALID,163.731,VALID,0,VALID,24.7705,VALID,30,VALID,0,
2011-09-05, 00:07:04,VALID,1004.91,VALID,0,INVALID,163.708,VALID,0,VALID,24.714,VALID,31,VALID,0,
2011-09-05, 00:08:04,VALID,1004.85,VALID,0,INVALID,163.723,VALID,0,VALID,24.675,VALID,19,VALID,0,
2011-09-05, 00:09:04,VALID,1004.82,VALID,0,INVALID,163.746,VALID,0,VALID,24.6537,VALID,18,VALID,0,
2011-09-05, 00:10:04,VALID,1004.81,VALID,0,INVALID,163.723,VALID,0.100563,VALID,24.6732,VALID,35,VALID,0,
2011-09-05, 00:11:04,VALID,1004.83,VALID,0,INVALID,163.708,VALID,0,VALID,24.7529,VALID,30,VALID,0,
2011-09-05, 00:12:04,VALID,1004.85,VALID,0,INVALID,163.739,VALID,0,VALID,24.6945,VALID,30,VALID,0,
2011-09-05, 00:13:04,VALID,1004.83,VALID,0,INVALID,163.723,VALID,0,VALID,24.6342,VALID,29,VALID,0,
2011-09-05, 00:14:04,VALID,1004.85,VALID,0,INVALID,163.693,VALID,0,VALID,24.6361,VALID,24,VALID,0,
2011-09-05, 00:15:04,VALID,1004.87,VALID,0,INVALID,163.716,VALID,0,VALID,24.6556,VALID,30,VALID,0,
2011-09-05, 00:16:04,VALID,1004.88,VALID,0,INVALID,163.716,VALID,0,VALID,24.6945,VALID,32,VALID,0,
2011-09-05, 00:17:04,VALID,1004.91,VALID,0,INVALID,163.701,VALID,0,VALID,24.8679,VALID,38,VALID,0,
2011-09-05, 00:18:04,VALID,1004.88,VALID,0,INVALID,163.701,VALID,0,VALID,25.0644,VALID,21,VALID,0,
2011-09-05, 00:19:04,VALID,1004.86,VALID,0,INVALID,163.678,VALID,0,VALID,25.1229,VALID,12,VALID,0,
2011-09-05, 00:20:04,VALID,1004.87,VALID,0,INVALID,163.685,VALID,0,VALID,25.1813,VALID,19,VALID,0,
2011-09-05, 00:21:04,VALID,1004.89,VALID,0,INVALID,163.67,VALID,0,VALID,25.1813,VALID,12,VALID,0,
2011-09-05, 00:22:04,VALID,1004.9,VALID,0,INVALID,163.708,VALID,0,VALID,25.2007,VALID,19,VALID,0,
2011-09-05, 00:23:04,VALID,1004.91,VALID,0,INVALID,163.67,VALID,0,VALID,25.2592,VALID,28,VALID,0,
2011-09-05, 00:24:04,VALID,1004.93,VALID,0,INVALID,163.678,VALID,0,VALID,25.2786,VALID,13,VALID,0,
2011-09-05, 00:25:04,VALID,1004.94,VALID,0,INVALID,163.701,VALID,0,VALID,25.337,VALID,17,VALID,0,
2011-09-05, 00:26:04,VALID,1004.94,VALID,0,INVALID,163.655,VALID,0,VALID,25.3955,VALID,25,VALID,0,
2011-09-05, 00:27:04,VALID,1004.91,VALID,0,INVALID,163.655,VALID,0,VALID,25.4753,VALID,5,VALID,0,
2011-09-05, 00:28:04,VALID,1004.94,VALID,0,INVALID,163.67,VALID,0,VALID,25.4539,VALID,3,VALID,0,
2011-09-05, 00:29:04,VALID,1004.93,VALID,0,INVALID,163.655,VALID,0,VALID,25.4149,VALID,13,VALID,0,
2011-09-05, 00:30:04,VALID,1004.96,VALID,0,INVALID,163.639,VALID,0,VALID,25.4169,VALID,5,VALID,0,
2011-09-05, 00:31:04,VALID,1005.01,VALID,0,INVALID,163.67,VALID,0,VALID,25.3955,VALID,42,VALID,0,
2011-09-05, 00:32:04,VALID,1005.08,VALID,0,INVALID,163.662,VALID,0,VALID,25.3955,VALID,16,VALID,0,
2011-09-05, 00:33:04,VALID,1005.07,VALID,0,INVALID,163.647,VALID,0,VALID,25.3955,VALID,18,VALID,0,
2011-09-05, 00:34:04,VALID,1005.11,VALID,0,INVALID,163.678,VALID,0,VALID,25.4149,VALID,1,VALID,0,
2011-09-05, 00:35:04,VALID,1005.14,VALID,0,INVALID,163.678,VALID,0,VALID,25.4149,VALID,18,VALID,0,
2011-09-05, 00:36:04,VALID,1005.14,VALID,0,INVALID,163.67,VALID,0,VALID,25.4539,VALID,348,VALID,0,
2011-09-05, 00:37:04,VALID,1005.17,VALID,0,INVALID,163.67,VALID,0,VALID,25.4539,VALID,353,VALID,0,
2011-09-05, 00:38:04,VALID,1005.17,VALID,0,INVALID,163.67,VALID,0,VALID,25.376,VALID,345,VALID,0,
2011-09-05, 00:39:04,VALID,1005.18,VALID,0,INVALID,163.685,VALID,0,VALID,25.2786,VALID,347,VALID,0,
2011-09-05, 00:40:04,VALID,1005.2,VALID,0,INVALID,163.716,VALID,0,VALID,25.1988,VALID,11,VALID,0,
2011-09-05, 00:41:04,VALID,1005.23,VALID,0,INVALID,163.693,VALID,0,VALID,25.2202,VALID,359,VALID,0,
2011-09-05, 00:42:04,VALID,1005.25,VALID,0,INVALID,163.67,VALID,0,VALID,25.2806,VALID,17,VALID,0,
2011-09-05, 00:43:04,VALID,1005.32,VALID,0,INVALID,163.693,VALID,0,VALID,25.3176,VALID,36,VALID,0,
2011-09-05, 00:44:04,VALID,1005.3,VALID,0,INVALID,163.685,VALID,0,VALID,25.2962,VALID,67,VALID,0,
2011-09-05, 00:45:04,VALID,1005.27,VALID,0,INVALID,163.67,VALID,0,VALID,25.2786,VALID,84,VALID,0,
2011-09-05, 00:46:04,VALID,1005.25,VALID,0,INVALID,163.662,VALID,0,VALID,25.2592,VALID,30,VALID,0,
2011-09-05, 00:47:04,VALID,1005.22,VALID,0,INVALID,163.685,VALID,0,VALID,25.1618,VALID,18,VALID,0,
2011-09-05, 00:48:04,VALID,1005.22,VALID,0,INVALID,163.678,VALID,0,VALID,25.0663,VALID,358,VALID,0,
2011-09-05, 00:49:04,VALID,1005.2,VALID,0,INVALID,163.678,VALID,0,VALID,24.9885,VALID,21,VALID,0,
2011-09-05, 00:50:04,VALID,1005.16,VALID,0,INVALID,163.693,VALID,0,VALID,24.9106,VALID,3,VALID,0,
2011-09-05, 00:51:04,VALID,1005.16,VALID,0,INVALID,163.708,VALID,0,VALID,24.7919,VALID,18,VALID,0,
2011-09-05, 00:52:04,VALID,1005.13,VALID,0,INVALID,163.701,VALID,0,VALID,24.7335,VALID,96,VALID,0,
2011-09-05, 00:53:04,VALID,1005.12,VALID,0,INVALID,163.708,VALID,0,VALID,24.6945,VALID,159,VALID,0,
2011-09-05, 00:54:04,VALID,1005.11,VALID,0,INVALID,163.708,VALID,0,VALID,24.6556,VALID,172,VALID,0,
2011-09-05, 00:55:04,VALID,1005.11,VALID,0,INVALID,163.739,VALID,0,VALID,24.6166,VALID,177,VALID,0,
2011-09-05, 00:56:04,VALID,1005.1,VALID,0,INVALID,163.731,VALID,0,VALID,24.5972,VALID,177,VALID,0,
2011-09-05, 00:57:04,VALID,1005.08,VALID,0,INVALID,163.746,VALID,0,VALID,24.5582,VALID,177,VALID,0,
2011-09-05, 00:58:04,VALID,1005.08,VALID,0,INVALID,163.739,VALID,0,VALID,24.5193,VALID,177,VALID,0,
2011-09-05, 00:59:04,VALID,1005.06,VALID,0,INVALID,163.693,VALID,0,VALID,24.459,VALID,177,VALID,0,
2011-09-05, 01:00:04,VALID,1005.05,VALID,0,INVALID,163.739,VALID,0,VALID,24.4414,VALID,177,VALID,0,
2011-09-05, 01:01:04,VALID,1005.07,VALID,0,INVALID,163.746,VALID,0,VALID,24.4025,VALID,177,VALID,0,
2011-09-05, 01:02:04,VALID,1005.08,VALID,0,INVALID,163.723,VALID,0,VALID,24.3636,VALID,177,VALID,0,
2011-09-05, 01:03:04,VALID,1005.1,VALID,0,INVALID,163.731,VALID,0,VALID,24.3441,VALID,177,VALID,0,
2011-09-05, 01:04:04,VALID,1005.07,VALID,0,INVALID,163.754,VALID,0,VALID,24.3052,VALID,177,VALID,0,
2011-09-05, 01:05:04,VALID,1005.07,VALID,0,INVALID,163.769,VALID,0,VALID,24.2857,VALID,177,VALID,0,
2011-09-05, 01:06:04,VALID,1005.08,VALID,0,INVALID,163.731,VALID,0,VALID,24.2681,VALID,172,VALID,0,
2011-09-05, 01:07:04,VALID,1005.05,VALID,0,INVALID,163.754,VALID,0,VALID,24.2273,VALID,172,VALID,0,
2011-09-05, 01:08:04,VALID,1005.05,VALID,0,INVALID,163.708,VALID,0,VALID,24.2097,VALID,172,VALID,0,
2011-09-05, 01:09:04,VALID,1005.06,VALID,0,INVALID,163.762,VALID,0,VALID,24.2097,VALID,172,VALID,0,
2011-09-05, 01:10:04,VALID,1005.05,VALID,0,INVALID,163.754,VALID,0,VALID,24.1902,VALID,172,VALID,0,
2011-09-05, 01:11:04,VALID,1005.05,VALID,0,INVALID,163.746,VALID,0,VALID,24.1513,VALID,172,VALID,0,
2011-09-05, 01:12:04,VALID,1005.04,VALID,0,INVALID,163.754,VALID,0,VALID,24.1105,VALID,172,VALID,0,
2011-09-05, 01:13:04,VALID,1005.04,VALID,0,INVALID,163.739,VALID,0,VALID,24.1105,VALID,172,VALID,0,
2011-09-05, 01:14:04,VALID,1005.09,VALID,0,INVALID,163.762,VALID,0,VALID,24.13,VALID,12,VALID,0,
2011-09-05, 01:15:04,VALID,1005.07,VALID,0,INVALID,163.762,VALID,0,VALID,24.091,VALID,12,VALID,0,
2011-09-05, 01:16:04,VALID,1005.06,VALID,0,INVALID,163.746,VALID,0,VALID,24.0716,VALID,12,VALID,0,
2011-09-05, 01:17:04,VALID,1005.01,VALID,0,INVALID,163.739,VALID,0,VALID,24.0716,VALID,12,VALID,0,
2011-09-05, 01:18:04,VALID,1004.95,VALID,0,INVALID,163.754,VALID,0,VALID,24.0521,VALID,12,VALID,0,
2011-09-05, 01:19:04,VALID,1004.87,VALID,0,INVALID,163.784,VALID,0,VALID,24.0716,VALID,12,VALID,0,
2011-09-05, 01:20:04,VALID,1004.8,VALID,0,INVALID,163.762,VALID,0,VALID,24.0521,VALID,12,VALID,0,
2011-09-05, 01:21:04,VALID,1004.74,VALID,0,INVALID,163.762,VALID,0,VALID,24.0326,VALID,6,VALID,0,
2011-09-05, 01:22:04,VALID,1004.69,VALID,0,INVALID,163.769,VALID,0,VALID,24.0132,VALID,355,VALID,0,
2011-09-05, 01:23:04,VALID,1004.63,VALID,0,INVALID,163.769,VALID,0,VALID,24.0132,VALID,355,VALID,0,
2011-09-05, 01:24:04,VALID,1004.59,VALID,0,INVALID,163.792,VALID,0,VALID,23.9937,VALID,345,VALID,0,
2011-09-05, 01:25:04,VALID,1004.57,VALID,0,INVALID,163.769,VALID,0,VALID,23.9937,VALID,352,VALID,0,
2011-09-05, 01:26:04,VALID,1004.57,VALID,0,INVALID,163.762,VALID,0,VALID,23.9955,VALID,348,VALID,0,
2011-09-05, 01:27:04,VALID,1004.58,VALID,0,INVALID,163.739,VALID,0.100563,VALID,23.9548,VALID,309,VALID,0,
2011-09-05, 01:28:04,VALID,1004.56,VALID,0,INVALID,163.769,VALID,0.100563,VALID,23.9353,VALID,346,VALID,0,
2011-09-05, 01:29:04,VALID,1004.57,VALID,0,INVALID,163.784,VALID,0,VALID,23.9159,VALID,338,VALID,0,
2011-09-05, 01:30:04,VALID,1004.58,VALID,0,INVALID,163.777,VALID,0.100563,VALID,23.9548,VALID,358,VALID,0,
2011-09-05, 01:31:04,VALID,1004.56,VALID,0,INVALID,163.754,VALID,0,VALID,23.8556,VALID,349,VALID,0,
2011-09-05, 01:32:04,VALID,1004.56,VALID,0,INVALID,163.777,VALID,0.100563,VALID,23.8575,VALID,338,VALID,0,
2011-09-05, 01:33:04,VALID,1004.56,VALID,0,INVALID,163.777,VALID,0.100563,VALID,23.8167,VALID,346,VALID,0,
2011-09-05, 01:34:04,VALID,1004.56,VALID,0,INVALID,163.8,VALID,0,VALID,23.8185,VALID,348,VALID,0,
2011-09-05, 01:35:04,VALID,1004.54,VALID,0,INVALID,163.807,VALID,0,VALID,23.7991,VALID,345,VALID,0,
2011-09-05, 01:36:04,VALID,1004.55,VALID,0,INVALID,163.777,VALID,0,VALID,23.7796,VALID,352,VALID,0,
2011-09-05, 01:37:04,VALID,1004.55,VALID,0,INVALID,163.792,VALID,0,VALID,23.7389,VALID,20,VALID,0,
2011-09-05, 01:38:04,VALID,1004.54,VALID,0.5,INVALID,163.777,VALID,0,VALID,23.7407,VALID,11,VALID,0,
2011-09-05, 01:39:04,VALID,1004.51,VALID,0,INVALID,163.792,VALID,0,VALID,23.7991,VALID,358,VALID,0,
2011-09-05, 01:40:04,VALID,1004.52,VALID,0,INVALID,163.769,VALID,0,VALID,23.8575,VALID,18,VALID,0,
2011-09-05, 01:41:04,VALID,1004.51,VALID,0,INVALID,163.784,VALID,0,VALID,23.914,VALID,18,VALID,0,
2011-09-05, 01:42:04,VALID,1004.48,VALID,0,INVALID,163.777,VALID,0,VALID,23.953,VALID,32,VALID,0,
2011-09-05, 01:43:04,VALID,1004.49,VALID,0,INVALID,163.769,VALID,0,VALID,24.0521,VALID,60,VALID,0,
2011-09-05, 01:44:04,VALID,1004.48,VALID,0,INVALID,163.777,VALID,0,VALID,24.0308,VALID,22,VALID,0,
2011-09-05, 01:45:04,VALID,1004.52,VALID,0,INVALID,163.762,VALID,0,VALID,24.0521,VALID,23,VALID,0,
2011-09-05, 01:46:04,VALID,1004.54,VALID,0,INVALID,163.739,VALID,0,VALID,24.13,VALID,2,VALID,0,
2011-09-05, 01:47:04,VALID,1004.55,VALID,0,INVALID,163.762,VALID,0,VALID,24.1689,VALID,31,VALID,0,
2011-09-05, 01:48:04,VALID,1004.54,VALID,0,INVALID,163.784,VALID,0,VALID,24.1689,VALID,20,VALID,0,
2011-09-05, 01:49:04,VALID,1004.53,VALID,0,INVALID,163.739,VALID,0,VALID,24.206,VALID,7,VALID,0,
2011-09-05, 01:50:04,VALID,1004.51,VALID,0,INVALID,163.769,VALID,0,VALID,24.3052,VALID,15,VALID,0,
2011-09-05, 01:51:04,VALID,1004.46,VALID,0,INVALID,163.731,VALID,0,VALID,24.4609,VALID,28,VALID,0,
2011-09-05, 01:52:04,VALID,1004.42,VALID,0,INVALID,163.708,VALID,0,VALID,24.5564,VALID,32,VALID,0,
2011-09-05, 01:53:04,VALID,1004.42,VALID,0,INVALID,163.723,VALID,0,VALID,24.6732,VALID,24,VALID,0,
2011-09-05, 01:54:04,VALID,1004.38,VALID,0,INVALID,163.693,VALID,0,VALID,24.751,VALID,25,VALID,0,
2011-09-05, 01:55:04,VALID,1004.38,VALID,0,INVALID,163.708,VALID,0.100563,VALID,24.8308,VALID,32,VALID,0,
2011-09-05, 01:56:04,VALID,1004.33,VALID,0,INVALID,163.716,VALID,0.100563,VALID,24.751,VALID,21,VALID,0,
2011-09-05, 01:57:04,VALID,1004.37,VALID,0,INVALID,163.693,VALID,0,VALID,24.9087,VALID,45,VALID,0,
2011-09-05, 01:58:04,VALID,1004.38,VALID,0,INVALID,163.701,VALID,0,VALID,24.8697,VALID,40,VALID,0,
2011-09-05, 01:59:04,VALID,1004.39,VALID,0,INVALID,163.708,VALID,0,VALID,24.8503,VALID,30,VALID,0,
2011-09-05, 02:00:04,VALID,1004.44,VALID,0,INVALID,163.716,VALID,0,VALID,24.8892,VALID,35,VALID,0,
2011-09-05, 02:01:04,VALID,1004.45,VALID,0,INVALID,163.708,VALID,0,VALID,24.8873,VALID,46,VALID,0,
2011-09-05, 02:02:04,VALID,1004.49,VALID,0,INVALID,163.708,VALID,0.100563,VALID,24.8289,VALID,36,VALID,0,
2011-09-05, 02:03:04,VALID,1004.47,VALID,0,INVALID,163.731,VALID,0,VALID,24.7724,VALID,39,VALID,0,
2011-09-05, 02:04:04,VALID,1004.46,VALID,0,INVALID,163.693,VALID,0.100563,VALID,24.79,VALID,17,VALID,0,
2011-09-05, 02:05:04,VALID,1004.48,VALID,0,INVALID,163.723,VALID,0,VALID,24.8697,VALID,16,VALID,0,
2011-09-05, 02:06:04,VALID,1004.5,VALID,0,INVALID,163.685,VALID,0,VALID,24.8308,VALID,16,VALID,0,
2011-09-05, 02:07:04,VALID,1004.44,VALID,0,INVALID,163.731,VALID,0.100563,VALID,24.714,VALID,28,VALID,0,
2011-09-05, 02:08:04,VALID,1004.4,VALID,0,INVALID,163.731,VALID,0.100563,VALID,24.6148,VALID,29,VALID,0,
2011-09-05, 02:09:04,VALID,1004.42,VALID,0,INVALID,163.739,VALID,0,VALID,24.5193,VALID,17,VALID,0,
2011-09-05, 02:10:04,VALID,1004.42,VALID,0,INVALID,163.739,VALID,0,VALID,24.5582,VALID,27,VALID,0,
2011-09-05, 02:11:04,VALID,1004.41,VALID,0,INVALID,163.723,VALID,0,VALID,24.5174,VALID,12,VALID,0,
2011-09-05, 02:12:04,VALID,1004.41,VALID,0,INVALID,163.754,VALID,0.100563,VALID,24.498,VALID,38,VALID,0,
2011-09-05, 02:13:05,VALID,1004.42,VALID,0,INVALID,163.723,VALID,0.100563,VALID,24.459,VALID,39,VALID,0,
2011-09-05, 02:14:05,VALID,1004.4,VALID,0,INVALID,163.701,VALID,0.100563,VALID,24.4396,VALID,35,VALID,0,
2011-09-05, 02:15:04,VALID,1004.42,VALID,0,INVALID,163.762,VALID,0.100563,VALID,24.4396,VALID,35,VALID,0,
2011-09-05, 02:16:05,VALID,1004.42,VALID,0,INVALID,163.754,VALID,0,VALID,24.3654,VALID,32,VALID,0,
2011-09-05, 02:17:05,VALID,1004.44,VALID,0,INVALID,163.731,VALID,0,VALID,24.3441,VALID,33,VALID,0,
2011-09-05, 02:18:05,VALID,1004.42,VALID,0,INVALID,163.739,VALID,0,VALID,24.5212,VALID,26,VALID,0,
2011-09-05, 02:19:05,VALID,1004.46,VALID,0,INVALID,163.731,VALID,0,VALID,24.6166,VALID,5,VALID,0,
2011-09-05, 02:20:05,VALID,1004.44,VALID,0,INVALID,163.739,VALID,0,VALID,24.6361,VALID,13,VALID,0,
2011-09-05, 02:21:05,VALID,1004.44,VALID,0,INVALID,163.754,VALID,0,VALID,24.6166,VALID,21,VALID,0,
2011-09-05, 02:22:05,VALID,1004.47,VALID,0,INVALID,163.723,VALID,0,VALID,24.5777,VALID,25,VALID,0,
2011-09-05, 02:23:05,VALID,1004.49,VALID,0,INVALID,163.746,VALID,0,VALID,24.599,VALID,11,VALID,0,
2011-09-05, 02:24:05,VALID,1004.51,VALID,0,INVALID,163.739,VALID,0,VALID,24.638,VALID,27,VALID,0,
2011-09-05, 02:25:05,VALID,1004.52,VALID,0,INVALID,163.723,VALID,0,VALID,24.6185,VALID,70,VALID,0,
2011-09-05, 02:26:05,VALID,1004.52,VALID,0,INVALID,163.731,VALID,0,VALID,24.5582,VALID,24,VALID,0,
2011-09-05, 02:27:05,VALID,1004.54,VALID,0,INVALID,163.739,VALID,0,VALID,24.5017,VALID,24,VALID,0,
2011-09-05, 02:28:05,VALID,1004.53,VALID,0,INVALID,163.723,VALID,0,VALID,24.4609,VALID,30,VALID,0,
2011-09-05, 02:29:05,VALID,1004.53,VALID,0,INVALID,163.754,VALID,0,VALID,24.422,VALID,30,VALID,0,
2011-09-05, 02:30:05,VALID,1004.49,VALID,0,INVALID,163.731,VALID,0,VALID,24.4025,VALID,8,VALID,0,
2011-09-05, 02:31:05,VALID,1004.42,VALID,0,INVALID,163.723,VALID,0,VALID,24.3812,VALID,18,VALID,0,
2011-09-05, 02:32:05,VALID,1004.4,VALID,0,INVALID,163.746,VALID,0,VALID,24.4025,VALID,21,VALID,0,
2011-09-05, 02:33:05,VALID,1004.34,VALID,0,INVALID,163.762,VALID,0,VALID,24.4414,VALID,22,VALID,0,
2011-09-05, 02:34:05,VALID,1004.27,VALID,0,INVALID,163.739,VALID,0,VALID,24.4006,VALID,17,VALID,0,
2011-09-05, 02:35:05,VALID,1004.21,VALID,0,INVALID,163.731,VALID,0,VALID,24.4609,VALID,25,VALID,0,
2011-09-05, 02:36:05,VALID,1004.17,VALID,0,INVALID,163.746,VALID,0,VALID,24.4396,VALID,15,VALID,0,
2011-09-05, 02:37:05,VALID,1004.15,VALID,0,INVALID,163.723,VALID,0,VALID,24.5193,VALID,9,VALID,0,
2011-09-05, 02:38:05,VALID,1004.16,VALID,0,INVALID,163.693,VALID,0.100563,VALID,24.6926,VALID,25,VALID,0,
2011-09-05, 02:39:05,VALID,1004.15,VALID,0,INVALID,163.701,VALID,0,VALID,24.8308,VALID,30,VALID,0,
2011-09-05, 02:40:05,VALID,1004.17,VALID,0,INVALID,163.685,VALID,0.100563,VALID,24.8289,VALID,354,VALID,0,
2011-09-05, 02:41:05,VALID,1004.23,VALID,0,INVALID,163.708,VALID,0.100563,VALID,24.79,VALID,21,VALID,0,
2011-09-05, 02:42:05,VALID,1004.27,VALID,0,INVALID,163.723,VALID,0.100563,VALID,24.7705,VALID,28,VALID,0,
2011-09-05, 02:43:05,VALID,1004.31,VALID,0,INVALID,163.693,VALID,0,VALID,24.8308,VALID,32,VALID,0,
2011-09-05, 02:44:05,VALID,1004.34,VALID,0,INVALID,163.731,VALID,0,VALID,24.8095,VALID,15,VALID,0,
2011-09-05, 02:45:05,VALID,1004.43,VALID,0,INVALID,163.739,VALID,0,VALID,24.7919,VALID,3,VALID,0,
2011-09-05, 02:46:05,VALID,1004.47,VALID,0,INVALID,163.708,VALID,0,VALID,24.7705,VALID,21,VALID,0,
2011-09-05, 02:47:05,VALID,1004.54,VALID,0,INVALID,163.701,VALID,0,VALID,24.79,VALID,60,VALID,0,
2011-09-05, 02:48:05,VALID,1004.56,VALID,0,INVALID,163.693,VALID,0,VALID,24.8113,VALID,47,VALID,0,
2011-09-05, 02:49:05,VALID,1004.6,VALID,0,INVALID,163.723,VALID,0.100563,VALID,24.7529,VALID,25,VALID,0,
2011-09-05, 02:50:05,VALID,1004.58,VALID,0,INVALID,163.708,VALID,0,VALID,24.7724,VALID,16,VALID,0,
2011-09-05, 02:51:05,VALID,1004.59,VALID,0,INVALID,163.701,VALID,0.100563,VALID,24.7121,VALID,20,VALID,0,
2011-09-05, 02:52:05,VALID,1004.56,VALID,0,INVALID,163.769,VALID,0,VALID,24.6342,VALID,21,VALID,0,
2011-09-05, 02:53:05,VALID,1004.54,VALID,0,INVALID,163.731,VALID,0,VALID,24.6361,VALID,20,VALID,0,
2011-09-05, 02:54:05,VALID,1004.56,VALID,0,INVALID,163.723,VALID,0,VALID,24.5758,VALID,20,VALID,0,
2011-09-05, 02:55:05,VALID,1004.56,VALID,0,INVALID,163.739,VALID,0,VALID,24.5564,VALID,20,VALID,0,
2011-09-05, 02:56:05,VALID,1004.58,VALID,0,INVALID,163.754,VALID,0.100563,VALID,24.5174,VALID,52,VALID,0,
2011-09-05, 02:57:05,VALID,1004.64,VALID,0,INVALID,163.731,VALID,0,VALID,24.4998,VALID,85,VALID,0,
2011-09-05, 02:58:05,VALID,1004.67,VALID,0,INVALID,163.746,VALID,0,VALID,24.4609,VALID,85,VALID,0,
2011-09-05, 02:59:05,VALID,1004.7,VALID,0,INVALID,163.769,VALID,0,VALID,24.422,VALID,85,VALID,0,
2011-09-05, 03:00:05,VALID,1004.71,VALID,0,INVALID,163.723,VALID,0,VALID,24.3812,VALID,85,VALID,0,
2011-09-05, 03:01:05,VALID,1004.74,VALID,0,INVALID,163.731,VALID,0,VALID,24.383,VALID,85,VALID,0,
2011-09-05, 03:02:05,VALID,1004.72,VALID,0,INVALID,163.769,VALID,0,VALID,24.3033,VALID,85,VALID,0,
2011-09-05, 03:03:05,VALID,1004.71,VALID,0,INVALID,163.762,VALID,0,VALID,24.3052,VALID,85,VALID,0,
2011-09-05, 03:04:05,VALID,1004.73,VALID,0,INVALID,163.754,VALID,0,VALID,24.2644,VALID,85,VALID,0,
2011-09-05, 03:05:05,VALID,1004.74,VALID,0,INVALID,163.754,VALID,0,VALID,24.2255,VALID,85,VALID,0,
2011-09-05, 03:06:05,VALID,1004.74,VALID,0,INVALID,163.746,VALID,0,VALID,24.1865,VALID,85,VALID,0,
2011-09-05, 03:07:05,VALID,1004.72,VALID,0,INVALID,163.746,VALID,0,VALID,24.1884,VALID,85,VALID,0,
2011-09-05, 03:08:05,VALID,1004.72,VALID,0,INVALID,163.746,VALID,0,VALID,24.13,VALID,85,VALID,0,
2011-09-05, 03:09:05,VALID,1004.68,VALID,0,INVALID,163.769,VALID,0,VALID,24.0503,VALID,85,VALID,0,
2011-09-05, 03:10:05,VALID,1004.62,VALID,0,INVALID,163.769,VALID,0,VALID,24.0521,VALID,85,VALID,0,
2011-09-05, 03:11:05,VALID,1004.62,VALID,0,INVALID,163.754,VALID,0,VALID,23.9937,VALID,85,VALID,0,
2011-09-05, 03:12:05,VALID,1004.53,VALID,0,INVALID,163.754,VALID,0.100563,VALID,23.953,VALID,48,VALID,0,
2011-09-05, 03:13:05,VALID,1004.52,VALID,0,INVALID,163.769,VALID,0,VALID,23.9955,VALID,359,VALID,0,
2011-09-05, 03:14:05,VALID,1004.49,VALID,0,INVALID,163.762,VALID,0,VALID,23.9742,VALID,354,VALID,0,
2011-09-05, 03:15:05,VALID,1004.48,VALID,0,INVALID,163.777,VALID,0,VALID,23.9548,VALID,354,VALID,0,
2011-09-05, 03:16:05,VALID,1004.49,VALID,0,INVALID,163.784,VALID,0,VALID,23.9353,VALID,30,VALID,0,
2011-09-05, 03:17:05,VALID,1004.49,VALID,0,INVALID,163.8,VALID,0,VALID,23.9159,VALID,13,VALID,0,
2011-09-05, 03:18:05,VALID,1004.53,VALID,0,INVALID,163.792,VALID,0,VALID,23.9548,VALID,1,VALID,0,
2011-09-05, 03:19:05,VALID,1004.55,VALID,0,INVALID,163.746,VALID,0,VALID,24.0716,VALID,48,VALID,0,
2011-09-05, 03:20:05,VALID,1004.6,VALID,0,INVALID,163.739,VALID,0,VALID,24.2662,VALID,20,VALID,0,
2011-09-05, 03:21:05,VALID,1004.57,VALID,0,INVALID,163.746,VALID,0,VALID,24.4785,VALID,14,VALID,0,
2011-09-05, 03:22:05,VALID,1004.55,VALID,0,INVALID,163.731,VALID,0,VALID,24.6945,VALID,3,VALID,0,
2011-09-05, 03:23:05,VALID,1004.5,VALID,0,INVALID,163.723,VALID,0,VALID,24.8113,VALID,19,VALID,0,
2011-09-05, 03:24:05,VALID,1004.44,VALID,0,INVALID,163.708,VALID,0,VALID,24.8484,VALID,9,VALID,0,
2011-09-05, 03:25:05,VALID,1004.4,VALID,0,INVALID,163.693,VALID,0,VALID,24.9087,VALID,23,VALID,0,
2011-09-05, 03:26:05,VALID,1004.38,VALID,0,INVALID,163.701,VALID,0,VALID,25.0236,VALID,5,VALID,0,
2011-09-05, 03:27:05,VALID,1004.44,VALID,0,INVALID,163.685,VALID,0,VALID,25.1034,VALID,11,VALID,0,
2011-09-05, 03:28:05,VALID,1004.47,VALID,0,INVALID,163.662,VALID,0.100563,VALID,25.082,VALID,20,VALID,0,
2011-09-05, 03:29:05,VALID,1004.51,VALID,0,INVALID,163.685,VALID,0,VALID,25.1794,VALID,37,VALID,0,
2011-09-05, 03:30:05,VALID,1004.47,VALID,0,INVALID,163.685,VALID,0,VALID,25.2767,VALID,358,VALID,0,
2011-09-05, 03:31:05,VALID,1004.51,VALID,0,INVALID,163.67,VALID,0,VALID,25.337,VALID,24,VALID,0,
2011-09-05, 03:32:05,VALID,1004.45,VALID,0,INVALID,163.685,VALID,0,VALID,25.3195,VALID,13,VALID,0,
2011-09-05, 03:33:05,VALID,1004.45,VALID,0,INVALID,163.662,VALID,0,VALID,25.3584,VALID,11,VALID,0,
2011-09-05, 03:34:05,VALID,1004.42,VALID,0,INVALID,163.693,VALID,0,VALID,25.337,VALID,357,VALID,0,
2011-09-05, 03:35:05,VALID,1004.43,VALID,0,INVALID,163.662,VALID,0,VALID,25.339,VALID,2,VALID,0,
2011-09-05, 03:36:05,VALID,1004.42,VALID,0,INVALID,163.655,VALID,0,VALID,25.3195,VALID,24,VALID,0,
2011-09-05, 03:37:05,VALID,1004.4,VALID,0,INVALID,163.678,VALID,0,VALID,25.2981,VALID,355,VALID,0,
2011-09-05, 03:38:05,VALID,1004.42,VALID,0,INVALID,163.67,VALID,0,VALID,25.2786,VALID,357,VALID,0,
2011-09-05, 03:39:05,VALID,1004.45,VALID,0,INVALID,163.655,VALID,0,VALID,25.2611,VALID,13,VALID,0,
2011-09-05, 03:40:05,VALID,1004.45,VALID,0,INVALID,163.678,VALID,0,VALID,25.1832,VALID,358,VALID,0,
2011-09-05, 03:41:05,VALID,1004.46,VALID,0,INVALID,163.67,VALID,0,VALID,25.1442,VALID,10,VALID,0,
2011-09-05, 03:42:05,VALID,1004.45,VALID,0,INVALID,163.685,VALID,0,VALID,25.0858,VALID,5,VALID,0,
2011-09-05, 03:43:05,VALID,1004.51,VALID,0,INVALID,163.678,VALID,0,VALID,25.045,VALID,360,VALID,0,
2011-09-05, 03:44:05,VALID,1004.5,VALID,0,INVALID,163.685,VALID,0,VALID,25.045,VALID,6,VALID,0,
2011-09-05, 03:45:05,VALID,1004.5,VALID,0,INVALID,163.701,VALID,0,VALID,25.082,VALID,3,VALID,0,
2011-09-05, 03:46:05,VALID,1004.47,VALID,0,INVALID,163.701,VALID,0,VALID,25.0839,VALID,4,VALID,0,
2011-09-05, 03:47:05,VALID,1004.49,VALID,0,INVALID,163.678,VALID,0,VALID,25.1229,VALID,18,VALID,0,
2011-09-05, 03:48:05,VALID,1004.49,VALID,0,INVALID,163.708,VALID,0,VALID,25.1034,VALID,357,VALID,0,
2011-09-05, 03:49:05,VALID,1004.54,VALID,0,INVALID,163.685,VALID,0,VALID,25.1053,VALID,9,VALID,0,
2011-09-05, 03:50:05,VALID,1004.56,VALID,0,INVALID,163.678,VALID,0,VALID,25.0839,VALID,11,VALID,0,
2011-09-05, 03:51:05,VALID,1004.56,VALID,0,INVALID,163.678,VALID,0,VALID,25.0644,VALID,9,VALID,0,
2011-09-05, 03:52:05,VALID,1004.53,VALID,0,INVALID,163.685,VALID,0,VALID,25.045,VALID,2,VALID,0,
2011-09-05, 03:53:05,VALID,1004.54,VALID,0,INVALID,163.693,VALID,0,VALID,25.0255,VALID,13,VALID,0,
2011-09-05, 03:54:05,VALID,1004.55,VALID,0,INVALID,163.716,VALID,0,VALID,24.9847,VALID,9,VALID,0,
2011-09-05, 03:55:05,VALID,1004.53,VALID,0,INVALID,163.708,VALID,0,VALID,25.0236,VALID,15,VALID,0,